Wind_Speed
42 41 40 39 38 36 35 33 33 34 35 36 36 36 36 35 35 35 34 33 32 31 30 29 28 27 26 26 26 26 27 28 28 29 30 30 31 32 33 34 33 32
41 40 38 36 35 33 31 31 31 32 34 35 35 35 35 34 33 33 32 31 30 30 29 28 27 26 26 25 25 26 26 28 29 30 31 32 33 33 33 33 32 31
38 36 35 33 32 31 31 31 31 32 34 35 35 35 34 33 33 32 31 30 29 29 28 28 27 27 26 26 25 25 26 27 28 29 30 30 31 31 31 30 30 30
36 34 33 33 32 32 31 31 32 32 33 34 35 35 34 33 32 32 31 30 29 28 28 28 28 28 28 27 26 26 25 26 27 28 29 30 31 32 32 32 31 31
31 32 33 34 35 34 32 31 32 33 33 34 34 34 34 33 33 32 31 30 29 29 29 29 29 29 28 28 27 26 27 28 29 30 32 33 33 34 33 33 32 32
26 27 27 30 31 30 30 30 31 32 32 32 33 33 35 35 34 33 32 31 30 30 30 30 29 29 29 28 28 28 28 28 29 30 31 31 32 33 33 34 34 34
23 22 23 26 28 29 29 29 29 29 29 30 32 34 35 35 35 33 32 32 32 32 32 32 32 31 30 29 28 27 27 28 29 30 30 30 31 33 34 35 35 34
25 26 27 29 30 30 29 27 27 28 29 30 32 33 33 33 32 31 30 30 31 31 30 30 30 30 29 29 28 29 31 32 31 31 31 31 32 33 35 36 35 35
32 33 33 33 32 31 30 28 28 29 30 30 32 33 34 34 33 32 31 31 31 30 28 27 26 27 30 31 32 34 35 34 32 32 33 33 34 35 36 36 36 37
37 36 35 35 35 35 34 33 32 33 33 34 35 36 38 38 37 37 35 34 32 31 30 30 31 34 36 36 37 38 37 34 34 34 35 36 37 38 37 37 38 38
40 38 37 37 36 36 35 35 35 36 36 37 37 38 39 39 38 37 35 34 34 35 36 37 40 42 42 41 41 39 37 36 37 38 39 39 39 39 39 39 39 41
41 40 39 37 36 36 37 37 38 38 37 37 38 38 38 38 37 36 36 37 39 40 42 44 45 45 43 42 41 39 38 39 40 41 41 41 41 41 41 41 43 45
42 43 42 40 39 39 39 39 39 40 40 41 42 42 42 41 40 41 42 44 44 45 47 47 47 45 43 42 40 39 40 41 41 42 42 42 42 42 43 45 47 48
44 44 44 43 43 42 40 39 40 41 42 43 46 48 49 48 48 48 48 48 47 48 48 47 46 44 42 41 40 40 41 41 42 43 44 44 44 46 47 48 48 48
45 45 46 46 46 45 44 44 44 44 45 45 46 48 49 49 49 48 47 47 48 48 48 46 44 43 42 41 41 41 42 43 44 45 45 46 47 48 49 48 48 47
43 45 45 46 46 46 47 49 50 50 50 49 48 48 49 49 47 46 45 46 47 47 47 45 44 43 43 43 44 44 45 46 46 47 47 47 48 48 49 48 47 47
41 42 43 45 45 46 48 49 49 50 50 50 50 50 50 49 48 47 47 48 49 48 47 46 45 45 45 46 47 47 47 48 48 49 48 49 49 50 50 50 50 50
43 43 43 44 44 46 47 47 47 48 48 48 48 48 49 50 51 51 52 52 51 48 47 46 47 48 48 48 48 48 49 50 50 51 51 52 52 52 52 53 53 53
47 47 47 46 45 45 46 46 48 49 49 49 50 50 51 52 52 52 51 50 48 48 48 49 49 49 49 49 49 50 51 52 53 54 55 55 55 55 55 56 56 56
52 51 50 49 47 47 47 48 49 51 52 54 54 55 56 56 55 54 53 53 53 54 54 54 52 52 52 52 53 54 56 57 58 59 60 60 60 60 59 59 59 59
59 58 57 55 53 52 51 52 53 54 57 58 59 59 60 61 61 60 60 60 60 59 58 57 56 56 57 57 58 59 60 61 62 63 63 64 64 64 63 62 62 62
63 64 64 62 61 59 58 58 59 59 60 60 60 60 61 61 61 61 61 61 60 59 58 58 59 60 62 62 62 62 62 63 64 65 66 66 67 67 66 66 66 67
66 67 67 66 65 64 64 63 63 63 63 62 62 61 61 60 59 59 60 60 59 59 60 60 60 62 66 66 65 65 65 66 66 67 67 68 70 71 71 71 72 73
71 70 70 70 69 69 68 68 68 68 68 68 67 67 66 65 64 63 64 65 65 66 68 67 66 68 71 71 70 70 70 70 71 71 71 72 73 74 75 75 76 77
74 73 73 73 72 73 73 72 72 72 72 72 73 73 73 72 71 70 70 71 71 72 74 74 73 74 75 76 76 76 76 76 77 78 78 79 79 79 79 80 80 81
75 75 75 74 74 74 74 74 74 74 75 75 76 76 76 77 76 76 76 77 77 77 78 78 78 78 79 80 81 82 82 83 84 84 85 85 84 84 85 85 86 86
Wind_Direction
265 265 266 267 269 271 273 274 274 274 273 273 273 274 274 273 272 271 272 272 273 274 276 277 277 278 277 276 276 277 276 275 274 274 275 277 279 280 282 284 286 287
265 265 266 267 269 270 271 271 271 271 270 270 270 270 269 267 267 268 270 271 272 274 275 275 276 277 277 278 279 280 279 277 277 277 278 280 281 283 284 285 287 288
264 265 266 266 267 268 269 269 269 268 268 269 269 267 265 263 263 264 266 268 270 272 272 273 275 276 277 278 280 282 282 282 281 281 281 282 283 285 286 287 288 288
265 264 264 265 267 269 271 271 272 272 271 271 269 267 264 263 261 262 263 265 268 270 272 274 276 277 277 279 281 282 283 283 283 282 282 283 285 286 287 287 287 286
270 269 268 269 269 270 271 272 272 272 271 270 269 267 266 265 265 265 265 266 268 271 275 277 278 279 279 280 281 282 282 282 282 282 283 285 287 288 288 288 287 287
274 274 270 268 267 267 269 270 270 270 269 269 268 267 267 267 268 268 268 269 271 274 277 279 279 279 279 280 281 281 282 282 284 286 288 290 291 292 293 293 293 293
263 261 260 262 265 268 269 268 267 268 268 267 266 266 266 267 268 270 271 272 273 274 275 277 277 278 278 279 281 284 287 289 291 293 295 295 295 296 297 297 297 297
243 246 255 263 267 269 267 265 266 267 266 265 265 265 266 267 268 269 269 270 271 273 274 275 276 277 278 280 283 289 293 294 294 295 296 296 296 297 297 297 297 297
242 249 259 263 263 263 263 264 264 263 261 260 260 263 265 265 266 267 269 271 272 271 271 271 273 278 282 283 285 292 296 295 294 295 296 295 295 297 296 295 294 294
246 252 258 261 262 262 264 264 262 260 259 259 261 264 267 268 269 270 272 272 272 271 271 272 277 283 286 286 289 293 295 293 292 294 296 296 296 296 296 295 293 291
245 251 255 258 259 259 260 261 260 260 261 262 264 266 268 271 273 274 274 274 275 275 276 279 284 286 285 286 290 292 291 288 289 292 296 297 296 295 295 294 292 290
242 246 249 251 254 254 256 259 261 261 259 259 261 263 264 267 268 270 272 274 276 277 278 281 284 283 283 285 287 288 287 287 287 291 294 296 295 294 295 294 292 292
241 244 246 248 252 255 258 261 263 264 263 261 261 260 260 261 264 267 270 273 276 278 279 280 280 280 281 283 284 286 286 287 287 290 293 293 293 292 293 293 294 294
246 248 251 254 257 259 261 263 264 266 268 269 268 265 263 262 263 267 271 273 276 278 278 278 278 279 281 282 284 287 288 288 289 291 292 292 292 292 294 295 296 296
253 255 257 259 261 263 264 264 265 266 269 272 274 274 274 272 271 272 273 275 276 277 278 278 279 281 283 285 287 289 290 290 291 292 293 293 293 294 295 296 297 296
255 255 257 259 261 263 264 265 267 268 269 271 274 276 278 278 277 278 278 278 278 279 280 280 281 282 285 287 288 289 290 291 293 293 293 293 293 294 295 295 294 293
250 252 254 257 260 261 262 264 267 269 270 271 273 273 274 275 275 276 278 279 280 281 280 281 282 283 285 287 288 289 290 292 293 292 291 291 292 292 293 292 292 291
245 249 251 253 255 256 259 262 264 266 267 268 269 269 270 271 273 276 278 280 281 280 279 281 283 284 285 286 287 288 290 291 292 291 290 291 291 291 290 290 291 291
243 247 248 249 248 249 253 256 259 261 262 263 264 266 268 271 274 276 277 278 277 277 278 280 282 283 283 283 284 286 288 289 290 289 289 289 289 289 289 290 290 289
244 246 247 247 246 246 249 252 254 257 259 261 264 267 269 271 272 273 273 273 274 276 279 281 281 281 281 281 282 285 287 288 289 289 288 288 288 288 288 288 288 288
245 248 249 249 248 248 250 252 254 257 260 263 265 267 268 269 270 271 272 274 276 279 280 281 281 281 281 281 282 284 286 288 288 288 287 288 289 289 289 289 289 288
247 250 251 252 252 252 252 254 256 259 261 263 265 266 267 269 270 272 274 275 277 278 277 278 279 280 279 279 281 283 284 284 285 285 286 288 289 289 289 290 289 289
250 252 254 255 257 257 256 256 257 258 259 261 263 264 265 266 267 269 271 271 272 272 271 272 275 276 277 278 280 281 282 282 283 284 285 286 287 288 289 290 289 289
252 254 256 257 259 260 260 259 259 259 259 260 261 262 263 264 265 266 268 269 270 271 272 272 273 274 276 279 281 282 283 284 285 285 285 286 286 287 288 288 288 288
253 255 257 258 260 261 261 262 262 262 261 261 261 262 262 263 264 265 267 269 271 273 274 276 276 277 278 280 282 283 284 284 285 286 286 287 287 288 288 288 287 287
253 255 257 258 259 261 262 263 263 263 263 263 263 263 263 264 264 264 265 266 268 270 272 274 276 277 278 279 281 282 283 283 284 285 286 287 288 288 288 288 288 288
Height
10629 10631 10632 10634 10635 10636 10638 10639 10639 10639 10638 10639 10641 10643 10644 10644 10644 10644 10645 10645 10646 10647 10647 10647 10648 10649 10649 10649 10649 10650 10649 10649 10649 10649 10649 10649 10649 10649 10649 10649 10649 10649
10624 10626 10627 10628 10630 10631 10632 10633 10634 10634 10633 10634 10636 10638 10639 10640 10640 10640 10640 10641 10642 10642 10643 10643 10644 10644 10645 10645 10645 10646 10646 10646 10645 10645 10645 10645 10645 10645 10645 10645 10645 10645
10619 10621 10622 10623 10625 10626 10627 10628 10629 10629 10629 10630 10632 10633 10634 10635 10636 10636 10636 10637 10637 10638 10639 10639 10640 10641 10641 10641 10642 10642 10642 10642 10642 10641 10641 10641 10641 10641 10641 10641 10641 10641
10614 10616 10618 10619 10620 10622 10623 10624 10624 10625 10626 10627 10627 10627 10628 10630 10631 10632 10633 10633 10633 10634 10634 10635 10636 10637 10637 10637 10638 10638 10638 10638 10638 10637 10637 10637 10637 10637 10636 10636 10636 10636
10611 10613 10615 10616 10617 10618 10619 10619 10620 10620 10621 10622 10623 10623 10623 10624 10626 10628 10629 10629 10630 10630 10630 10631 10631 10632 10633 10633 10634 10635 10634 10634 10634 10634 10633 10633 10633 10632 10632 10632 10632 10632
10609 10611 10611 10612 10612 10613 10613 10614 10614 10616 10616 10617 10618 10617 10618 10619 10621 10623 10625 10625 10625 10625 10626 10626 10627 10628 10628 10629 10629 10630 10630 10630 10630 10629 10629 10628 10628 10627 10627 10627 10627 10627
10606 10607 10608 10608 10608 10608 10608 10609 10610 10610 10611 10612 10612 10612 10613 10615 10617 10619 10620 10620 10621 10621 10622 10622 10622 10623 10623 10624 10625 10625 10625 10625 10625 10625 10624 10623 10623 10622 10622 10622 10622 10622
10602 10603 10603 10603 10603 10602 10603 10604 10605 10605 10606 10607 10607 10607 10608 10611 10613 10615 10615 10616 10616 10617 10618 10618 10618 10619 10619 10619 10620 10620 10620 10620 10620 10620 10619 10618 10618 10618 10617 10617 10617 10617
10597 10597 10598 10598 10598 10598 10599 10600 10600 10600 10601 10602 10603 10603 10604 10606 10608 10610 10611 10611 10612 10613 10614 10614 10615 10615 10615 10615 10615 10615 10615 10615 10614 10614 10614 10613 10613 10612 10612 10612 10611 10611
10592 10592 10593 10593 10592 10593 10594 10594 10594 10594 10596 10597 10598 10599 10599 10601 10603 10605 10606 10607 10608 10609 10609 10609 10610 10610 10610 10610 10609 10609 10609 10609 10609 10608 10608 10608 10607 10607 10606 10606 10606 10605
10587 10588 10588 10588 10588 10588 10589 10588 10588 10589 10590 10592 10593 10594 10594 10596 10598 10599 10600 10602 10603 10603 10603 10603 10604 10604 10604 10604 10603 10603 10603 10603 10603 10603 10602 10602 10601 10601 10600 10600 10600 10599
10582 10583 10583 10583 10583 10583 10584 10584 10583 10584 10585 10587 10588 10588 10589 10591 10592 10593 10595 10596 10597 10597 10597 10597 10597 10598 10598 10598 10597 10597 10597 10597 10597 10596 10596 10596 10595 10594 10594 10594 10593 10593
10576 10577 10577 10578 10579 10579 10579 10579 10578 10578 10579 10582 10583 10583 10584 10586 10587 10588 10589 10590 10591 10591 10591 10591 10590 10591 10591 10591 10590 10590 10590 10590 10590 10590 10589 10589 10589 10588 10588 10587 10587 10586
10571 10572 10574 10575 10575 10575 10576 10575 10573 10573 10574 10575 10575 10575 10577 10581 10583 10584 10585 10585 10585 10584 10584 10583 10583 10584 10584 10583 10583 10583 10583 10583 10583 10582 10582 10582 10582 10582 10581 10580 10580 10579
10568 10569 10570 10571 10571 10571 10571 10569 10568 10568 10568 10568 10567 10566 10568 10572 10575 10577 10579 10578 10578 10577 10576 10576 10576 10576 10575 10575 10575 10575 10575 10575 10574 10574 10574 10574 10574 10573 10572 10572 10571 10571
10563 10564 10565 10565 10565 10565 10563 10561 10561 10562 10562 10563 10563 10561 10561 10563 10565 10568 10569 10570 10569 10569 10569 10569 10569 10569 10568 10568 10568 10568 10568 10567 10567 10567 10566 10566 10565 10564 10564 10564 10564 10563
10557 10558 10560 10559 10559 10558 10556 10556 10557 10557 10557 10558 10559 10558 10557 10557 10558 10560 10561 10561 10562 10562 10562 10562 10562 10562 10562 10561 10561 10561 10560 10560 10560 10559 10558 10558 10557 10557 10557 10557 10557 10556
10552 10553 10554 10553 10553 10552 10551 10552 10553 10552 10552 10552 10552 10552 10551 10552 10553 10554 10554 10555 10555 10555 10555 10555 10555 10555 10555 10555 10554 10553 10553 10553 10553 10552 10551 10550 10550 10550 10550 10550 10550 10550
10548 10548 10548 10548 10548 10548 10548 10548 10548 10547 10547 10546 10546 10546 10546 10547 10548 10548 10548 10548 10548 10548 10549 10549 10550 10549 10549 10549 10548 10547 10547 10547 10547 10546 10545 10545 10545 10545 10544 10544 10544 10543
10544 10544 10543 10542 10543 10543 10543 10543 10543 10542 10541 10541 10542 10543 10542 10542 10543 10543 10543 10542 10541 10542 10543 10543 10544 10544 10543 10542 10542 10541 10541 10540 10539 10538 10537 10537 10538 10539 10539 10538 10538 10537
10539 10538 10537 10537 10538 10539 10539 10539 10538 10537 10536 10536 10539 10539 10538 10537 10537 10537 10536 10535 10535 10536 10536 10536 10536 10536 10535 10534 10534 10534 10534 10533 10532 10530 10529 10528 10529 10529 10530 10530 10530 10530
10533 10532 10532 10532 10533 10534 10534 10534 10533 10532 10531 10530 10532 10532 10532 10531 10530 10530 10529 10528 10528 10529 10528 10528 10529 10528 10526 10525 10527 10528 10528 10526 10525 10522 10521 10521 10519 10518 10519 10520 10520 10520
10526 10526 10525 10526 10527 10527 10528 10528 10527 10526 10524 10524 10524 10524 10524 10524 10524 10524 10522 10520 10521 10521 10520 10522 10523 10520 10516 10517 10520 10521 10520 10519 10517 10516 10515 10514 10511 10509 10509 10510 10509 10508
10519 10520 10520 10520 10520 10520 10519 10520 10520 10519 10518 10517 10517 10516 10517 10517 10518 10518 10514 10512 10513 10512 10510 10513 10516 10512 10507 10508 10511 10511 10510 10509 10508 10507 10507 10506 10505 10503 10503 10502 10500 10499
10513 10513 10513 10513 10513 10512 10511 10511 10512 10511 10511 10510 10509 10509 10509 10509 10510 10511 10508 10505 10505 10503 10500 10502 10504 10503 10500 10499 10500 10501 10501 10500 10499 10498 10496 10496 10496 10496 10495 10494 10492 10490
10505 10505 10505 10505 10505 10504 10504 10503 10503 10503 10502 10502 10501 10500 10501 10501 10501 10502 10501 10499 10498 10496 10494 10493 10493 10493 10492 10491 10490 10491 10491 10491 10490 10489 10487 10486 10486 10485 10484 10483 10481 10480